#timestamp,LO_Frequency,Hit,StdDev 
1459749615.6,286046996.9,N
1459749635.4,286046999.2,N
1459749655.2,286046995.4,N
1459749675.1,286046995.1,N
1459749676.0,286046995.1,N
1459749695.8,286046997.1,N
1459749715.6,286046999.8,N
1459749735.5,286047000.7,N
1459749755.3,286047001.1,N
1459749775.1,286047001.2,N
1459749795.9,286046998.8,N
1459749815.7,286047002.5,N
1459749835.5,286047002.4,N
1459749855.3,286047002.0,N
1459749875.2,286047002.8,N
1459749895.0,286047000.0,N
1459749895.9,286047000.0,N
1459749915.7,286046998.2,N
1459749935.6,286046998.2,N
1459749955.4,286046999.3,N
1459749975.2,286046998.2,N
1459749995.1,286046998.9,N
1459749996.0,286046998.9,N
1459750015.8,286046998.9,N
1459750035.6,286046998.5,N
1459750055.5,286047002.7,N
1459750075.3,286047001.3,N
1459750095.1,286047004.2,N
1459750115.9,286047001.9,N
1459750135.7,286047003.9,N
1459750155.5,286047003.4,N
1459750175.4,286047000.6,N
1459750195.2,286047000.8,N
1459750215.0,286047001.1,N
1459750215.9,286047001.1,N
1459750235.8,286046998.9,N
1459750255.6,286046998.8,N
1459750275.4,286046998.1,N
1459750295.2,286046998.2,N
1459750315.1,286046999.7,N
1459750316.0,286046999.7,N
1459750335.8,286047001.4,N
1459750355.6,286047000.1,N
1459750375.5,286047000.4,N
1459750395.3,286046998.6,N
1459750415.1,286046996.7,N
1459750435.9,286046998.7,N
1459750455.7,286046998.3,N
1459750475.5,286046998.3,N
1459750495.4,286046998.3,N
1459750515.2,286047000.8,N
1459750535.0,286047001.0,N
1459750535.9,286047001.0,N
1459750555.8,286047000.7,N
1459750575.6,286047000.2,N
1459750595.4,286046998.8,N
1459750615.3,286046997.2,N
1459750635.1,286046994.5,Y
1459750636.0,286046994.5,P
1459750655.8,286046994.0,N
1459750675.7,286046995.6,N
1459750695.5,286046995.8,N
1459750715.3,286046995.3,N
1459750735.2,286046993.7,Y
1459750755.9,286046998.8,P
1459750775.7,286047002.7,N
1459750795.6,286046998.2,N
1459750815.4,286047002.8,N
1459750835.2,286047001.8,N
1459750855.0,286047003.9,N
1459750856.0,286047003.9,N
1459750875.8,286047002.6,N
1459750895.6,286046998.3,N
1459750915.4,286046998.9,N
1459750935.3,286047002.6,N
1459750955.1,286047001.5,N
1459750975.8,286047001.8,N
1459750995.7,286047003.3,N
1459751015.5,286047003.8,N
1459751035.3,286047005.1,N
1459751055.2,286047000.4,N
1459751075.9,286046999.3,N
1459751095.7,286047003.2,N
1459751115.6,286047003.6,N
1459751135.4,286047005.8,N
1459751155.2,286047003.4,N
1459751175.0,286047002.4,N
1459751176.0,286047002.4,N
1459751195.8,286047001.8,N
1459751215.6,286047000.4,N
1459751235.4,286047000.3,N
1459751255.3,286047001.8,N
1459751275.1,286047002.6,N
1459751295.8,286047000.5,N
1459751315.7,286046998.8,N
1459751335.5,286047000.1,N
1459751355.3,286047001.7,N
1459751375.2,286046998.2,N
1459751395.9,286047002.8,N
1459751415.7,286047003.9,N
1459751435.6,286047002.3,N
1459751455.4,286046999.2,N
1459751475.2,286046998.9,N
1459751495.0,286046998.9,N
1459751496.0,286046998.9,N
1459751515.8,286047002.7,N
1459751535.6,286047002.7,N
1459751555.4,286047004.3,N
1459751575.3,286047005.4,N
1459751595.1,286047006.7,Y
1459751615.8,286047003.3,P
1459751635.7,286047002.3,N
1459751655.5,286047003.4,P
1459751675.4,286047005.6,Y
1459751695.2,286047000.7,P
1459751715.0,286046996.5,P
1459751715.9,286046996.5,N
1459751735.7,286046995.9,N
1459751755.6,286046993.3,N
1459751775.4,286046997.0,N
1459751795.2,286046997.2,N
1459751815.1,286046997.9,N
1459751816.0,286046997.9,N
1459751835.8,286046996.0,N
1459751855.6,286046993.6,N
1459751875.5,286046994.8,N
1459751895.3,286046992.1,Y
1459751915.1,286046997.6,P
1459751935.9,286046996.4,P
1459751955.7,286046991.7,P
1459751975.5,286046994.3,N
1459751995.4,286046994.5,N
1459752015.2,286046992.6,Y
1459752035.0,286046995.7,P
1459752035.9,286046995.7,P
1459752055.8,286046997.2,P
1459752075.6,286046998.0,N
1459752095.4,286046997.0,N
1459752115.3,286046999.7,N
1459752135.1,286047001.9,N
1459752136.0,286047001.9,N
1459752155.8,286047001.3,N
1459752175.7,286047003.8,N
1459752195.5,286047007.3,N
1459752215.3,286047006.7,N
1459752235.1,286047005.8,N
1459752255.9,286047004.0,N
1459752275.7,286047003.5,N
1459752295.5,286047001.3,N
1459752315.4,286047003.5,N
1459752335.2,286047005.7,N
1459752355.0,286047002.9,N
1459752355.9,286047002.9,N
1459752375.8,286047004.7,N
1459752395.6,286047004.6,N
1459752415.4,286047004.1,N
1459752435.3,286047004.3,N
1459752455.1,286047004.0,N
1459752456.0,286047004.0,N
1459752475.8,286047005.3,N
1459752495.7,286047005.7,N
1459752515.5,286047003.5,N
1459752535.3,286047007.2,N
1459752555.1,286047005.1,N
1459752575.9,286047001.3,N
1459752595.7,286047001.4,N
1459752615.5,286047004.2,N
1459752635.4,286047004.4,N
1459752655.2,286047001.6,N
1459752675.0,286047004.4,N
1459752675.9,286047004.4,N
1459752695.8,286047002.4,N
1459752715.6,286047002.5,N
1459752735.4,286046999.6,N
1459752755.3,286046999.1,N
1459752775.1,286046998.8,N
1459752776.0,286046998.8,N
1459752795.8,286047000.0,N
1459752815.7,286047000.1,N
1459752835.5,286047002.7,N
1459752855.3,286047002.0,N
1459752875.2,286047001.8,N
1459752895.9,286046999.2,N
1459752915.7,286046999.8,N
1459752935.5,286046998.9,N
1459752955.4,286046995.5,N
1459752975.2,286046993.4,N
1459752995.0,286046994.9,N
1459752995.9,286046994.9,N
1459753015.8,286046996.5,N
1459753035.6,286046998.4,N
1459753055.4,286046999.4,N
1459753075.3,286046998.0,N
1459753095.1,286046998.4,N
1459753096.0,286046998.4,N
1459753115.8,286046996.5,N
1459753135.7,286047001.2,N
1459753155.5,286047000.1,N
1459753175.3,286047002.6,N
1459753195.2,286047002.6,N
